Location: Pergain
(44.0589°N, 0.5875°E)
Time: 05:52:32
(UTC+00:00)

Daily predictions for brighter satellites

Satellite Brightness Start Highest point End
(mag) Time Altitude Azimuth Time Altitude Azimuth Time Altitude Azimuth
SJ 16-02 3.7 00:09:53 18° NE 00:09:53 18° NE 00:11:17 10° NE
SL-16 R/B 2.9 00:08:33 10° NNW 00:13:48 48° NE 00:13:48 48° NE
Nadezhda 4 Rocket 4.2 00:10:17 10° NNW 00:15:44 63° NW 00:15:44 63° NW
Cosmos 2297 Rocket 2.7 00:28:55 57° NNW 00:28:55 57° NNW 00:33:40 10° NNE
Cosmos 2344 4.4 00:23:39 10° NW 00:33:27 81° WSW 00:38:10 46° SSE
USA 229 DEB 4.3 00:36:45 43° E 00:36:45 43° E 00:42:12 10° NE
USA 229 4.3 00:36:53 42° E 00:36:53 42° E 00:42:17 10° NE
Cosmos 1092 Rocket 4.1 00:31:05 10° N 00:36:34 69° NW 00:36:34 69° NW
Cosmos 2219 4.0 00:41:47 44° NW 00:41:47 44° NW 00:46:47 10° NNE
Cosmos 2237 Rocket 3.6 00:38:11 10° NW 00:41:12 28° WNW 00:41:12 28° WNW
NOSS 3-1 (A) 4.4 00:48:36 32° E 00:48:36 32° E 00:52:51 10° NE
Meteor 1-24 Rocket 4.4 00:44:16 10° N 00:49:06 46° ENE 00:49:06 46° ENE
Cosmos 1680 Rocket 4.1 00:47:20 10° NNW 00:51:28 53° N 00:51:28 53° N
CZ-2D R/B 3.0 01:03:02 10° NNE 01:08:00 41° E 01:08:00 41° E
SL-16 R/B 3.0 01:09:26 48° ESE 01:10:44 57° ENE 01:16:51 10° N
Cosmos 1626 4.5 01:13:51 10° N 01:15:17 22° N 01:15:17 22° N
Cosmos 1655 Rocket 4.0 01:11:39 10° N 01:17:54 70° E 01:18:27 66° ESE
Cosmos 2227 Rocket 3.3 01:18:32 33° WNW 01:18:50 33° NW 01:23:56 10° N
Cosmos 2292 Rocket 4.5 01:14:44 10° N 01:21:38 64° ENE 01:22:07 61° ESE
Meteor 1-22 Rocket 4.2 01:25:04 72° N 01:25:04 72° N 01:29:53 10° N
Meteor 2-5 Rocket 4.0 01:20:26 10° NNW 01:25:04 56° NW 01:25:04 56° NW
NPP 4.1 01:21:48 10° NNE 01:27:04 50° E 01:27:05 50° E
Helios 1B rocket 4.3 01:23:50 10° N 01:25:58 24° NNW 01:25:58 24° NNW
Cosmos 2279 Rocket 4.0 01:29:43 66° W 01:29:44 66° W 01:35:56 10° N
Exosat Rocket 4.4 01:36:53 55° S 01:38:35 72° ESE 01:44:45 10° NNE
Cosmos 2180 Rocket 4.4 01:39:58 69° W 01:40:11 70° W 01:46:20 10° N
Resurs 1-4 Rocket 2.0 01:36:25 10° NNE 01:41:36 81° E 01:41:36 81° E
NOSS 2-3 (E) 4.1 01:44:49 61° NNE 01:44:49 61° NNE 01:48:59 10° NE
Cosmos 2227 4.2 01:44:00 72° SE 01:44:14 73° ESE 01:50:00 10° NNE
Cosmos 2098 Rocket 3.9 01:39:41 10° N 01:45:27 87° E 01:46:33 64° SSE
SJ 16-02 3.0 01:46:52 26° NW 01:46:52 26° NW 01:49:50 10° N
NOSS 3-1 (C) 3.6 01:48:09 52° WNW 01:48:51 55° NW 01:55:09 10° NNE
Cosmos 2263 Rocket 2.0 01:56:40 77° S 01:57:01 83° ESE 02:02:37 10° NNE
SL-16 R/B 3.9 01:53:15 10° NW 01:55:37 20° WNW 01:55:37 20° WNW
Cosmos 724 4.3 01:58:08 10° NW 02:03:52 60° WSW 02:03:52 60° WSW
Cosmos 372 Rocket 3.9 02:04:37 73° SSE 02:04:59 77° ESE 02:10:15 10° NNE
Cosmos 1937 Rocket 3.9 02:07:18 49° WNW 02:07:31 50° WNW 02:12:42 10° N
NOSS 2-3 (D) 3.9 02:08:30 60° NW 02:08:30 60° NW 02:13:21 10° NNE
COBE Rocket 3.7 02:08:32 81° ESE 02:08:42 83° ENE 02:13:21 10° N
Cosmos 1809 Rocket 4.4 02:05:09 10° N 02:11:19 88° E 02:13:15 47° S
Cosmos 1455 Rocket 3.9 02:12:38 40° NW 02:12:38 40° NW 02:16:11 10° N
Cosmos 2285 Rocket 4.3 02:11:00 40° SSE 02:13:01 58° ESE 02:19:11 10° NNE
Cosmos 2297 Rocket 4.5 02:10:42 10° WNW 02:13:14 13° NW 02:15:55 10° NNW
ATLAS CENTAUR R/B 1.9 02:13:46 50° E 02:13:46 50° E 02:17:09 10° NE
ADEOS II 2.3 02:08:06 10° NNE 02:13:20 63° ESE 02:14:31 49° SSE
Cosmos 1626 Rocket 3.5 02:09:01 10° N 02:13:03 77° N 02:13:03 77° N
Cosmos 1726 2.9 02:14:19 50° NNE 02:14:19 50° NNE 02:17:06 10° N
CZ-4B R/B 3.2 02:11:30 10° NNE 02:16:16 85° ESE 02:16:40 75° S
Cosmos 1844 Rocket 4.2 02:17:42 19° SE 02:20:19 27° ESE 02:24:56 10° NE
Cosmos 2266 Rocket 4.2 02:16:04 10° NNW 02:22:08 51° W 02:22:57 48° WSW
USA 229 DEB 4.4 02:24:11 30° W 02:26:48 43° NW 02:33:22 10° NNE
USA 229 4.4 02:24:18 30° W 02:26:54 43° NW 02:33:28 10° NNE
GEOS 3 Rocket 3.9 02:21:42 10° NNE 02:27:03 62° NW 02:28:25 47° WSW
Meteor 2-10 4.1 02:27:12 55° SW 02:28:24 75° W 02:34:08 10° N
Cosmos 2084 3.3 02:28:47 82° SSW 02:28:58 89° SE 02:33:26 10° NE
Meteor 1-21 Rocket 4.0 02:24:17 10° NNW 02:29:50 82° W 02:31:40 44° S
Meteor 2-21 4.3 02:23:50 10° N 02:29:54 78° W 02:32:12 41° S
CBERS-1 3.9 02:24:58 10° NNE 02:30:05 84° WNW 02:31:10 57° SSW
ARIANE 5 R/B 3.2 02:28:36 10° NNE 02:33:42 51° E 02:36:11 28° SSE
Cosmos 1932 4.4 02:27:54 10° NW 02:34:22 75° WSW 02:40:41 10° SSE
Cosmos 1758 Rocket 4.1 02:31:53 10° N 02:36:09 56° E 02:38:14 28° SSE
NOSS 3-1 (A) 4.1 02:36:02 32° W 02:38:04 43° NW 02:44:14 10° NNE
Cosmos 1603 3.9 02:33:20 10° NW 02:38:46 45° WSW 02:39:04 45° WSW
Cosmos 1340 Rocket 4.5 02:42:44 22° NW 02:42:44 22° NW 02:45:15 10° NNW
Cosmos 2150 Rocket 3.9 02:42:28 50° SW 02:43:48 75° WNW 02:49:05 10° NNE
Cosmos 494 Rocket 4.4 02:40:05 10° NNW 02:45:12 61° ENE 02:50:21 10° SSE
MINOTAUR IV R/B 4.4 02:40:46 10° NNW 02:45:15 72° WSW 02:46:15 51° S
H-2A R/B 4.1 02:43:40 10° ESE 02:47:05 26° ENE 02:50:32 10° N
CZ-2D R/B 3.2 02:43:23 10° N 02:48:04 30° WNW 02:49:19 27° W
Cosmos 1703 3.1 02:47:44 10° N 02:51:43 89° W 02:52:42 50° S
SL-16 R/B 3.6 02:54:31 25° W 02:54:40 25° W 02:59:44 10° NW
Cosmos 1825 Rocket 3.7 02:50:24 10° N 02:54:44 71° E 02:57:30 22° SSE
Cosmos 1125 Rocket 3.4 02:54:00 39° SSW 02:56:03 88° WNW 03:01:22 10° NNE
Cosmos 1943 3.6 02:52:02 10° NW 02:57:11 38° WSW 02:57:52 36° WSW
Cosmos 1953 3.2 02:59:36 33° WNW 02:59:40 33° WNW 03:03:22 10° N
USA 215 3.5 02:53:42 10° NE 03:00:12 63° SE 03:03:50 27° SSW
IRS-1C 4.1 02:56:05 10° N 03:01:25 72° WNW 03:03:50 33° SSW
IRS-1D 4.2 02:59:42 10° N 03:04:28 40° WNW 03:06:07 31° WSW
Cosmos 1328 3.7 03:01:33 10° NNW 03:05:33 73° W 03:07:02 37° S
Cosmos 1953 Rocket 4.0 03:01:45 10° N 03:06:13 63° E 03:10:37 10° SSE
CZ-2D R/B 3.4 03:06:57 10° NNE 03:10:57 79° ESE 03:12:51 30° S
OAO 2 Rocket 4.4 03:10:53 27° SSW 03:11:59 29° S 03:16:31 10° ESE
Meteor 2-8 Rocket 4.4 03:15:17 22° SSW 03:19:24 72° W 03:25:31 10° N
Resurs 1-4 Rocket 3.9 03:17:52 10° NNW 03:20:51 15° WNW 03:22:40 13° W
Cosmos 1606 Rocket 3.6 03:19:25 28° SSW 03:21:41 67° W 03:26:09 10° N
Atlas Centaur 2 3.6 03:20:39 21° SSW 03:22:54 25° S 03:28:48 10° ESE
NOSS 2-2 (E) 3.1 03:22:45 33° SSW 03:24:14 76° SE 03:28:09 10° NE
NOSS 2-2 (D) 3.4 03:23:30 28° SSW 03:25:09 58° ESE 03:28:54 10° NE
IDEFIX/ARIANE 42P 2.5 03:24:53 10° N 03:30:05 76° WNW 03:34:08 17° SSW
USA 267 4.0 03:25:45 10° ESE 03:32:06 56° NNE 03:38:27 10° NW
Cosmos 1908 4.3 03:31:23 25° WSW 03:32:23 29° WNW 03:35:50 10° NNW
MSX 3.9 03:30:13 10° NNE 03:36:02 84° ESE 03:41:49 10° SSW
Cosmos 1726 Rocket 3.7 03:33:33 21° SSW 03:36:23 59° W 03:40:49 10° N
Cosmos 2228 3.5 03:36:23 23° SW 03:38:41 43° WNW 03:42:54 10° N
Helios 1B 4.5 03:35:15 10° S 03:39:34 71° WSW 03:43:55 10° NNW
Cosmos 2315 Rocket 4.4 03:34:13 10° S 03:40:28 67° E 03:46:48 10° NNE
Cosmos 2263 Rocket 3.9 03:38:22 12° W 03:41:40 18° NW 03:45:29 10° N
Cosmos 1844 3.7 03:37:26 17° SSW 03:42:02 83° WNW 03:47:50 10° NNE
Meteor 1-28 Rocket 4.4 03:41:32 22° WSW 03:42:11 23° W 03:45:18 10° NW
SL-08 R/B 4.4 03:44:25 18° SW 03:46:55 27° W 03:51:07 10° NW
Cosmos 1386 Rocket 4.5 03:41:35 10° NNW 03:47:28 58° W 03:53:20 10° S
Cosmos 1455 4.4 03:45:31 10° SSE 03:48:46 26° E 03:52:02 10° NNE
Cosmos 1356 Rocket 3.9 03:46:41 19° SW 03:49:15 41° WNW 03:53:10 10° N
CZ-2C R/B 2.8 03:45:51 10° N 03:49:36 59° WNW 03:52:32 15° SSW
Cosmos 1300 2.9 03:49:36 16° SSW 03:52:23 50° W 03:56:08 10° N
ATLAS CENTAUR R/B 3.1 03:49:57 12° W 03:52:24 19° NW 03:55:18 10° N
ADEOS II 3.7 03:48:52 10° NNW 03:52:32 20° WNW 03:55:27 13° W
Spot 4 Rocket 4.5 03:49:24 10° N 03:54:18 45° WNW 03:58:32 13° SW
ERS-2 2.0 03:51:54 10° S 03:55:31 70° WSW 03:59:10 10° NNW
CZ-4C R/B 3.2 03:55:17 10° S 03:58:27 43° W 04:01:42 10° NNW
Cosmos 1269 Rocket 4.2 03:55:43 10° NNW 04:00:51 51° WSW 04:05:57 10° S
Cosmos 2278 Rocket 3.5 03:57:55 10° S 04:03:07 38° ESE 04:08:20 10° NE
Cosmos 1844 Rocket 3.1 03:59:23 14° SW 04:03:56 46° WNW 04:09:17 10° NNE
COSMOS 2441 4.5 04:00:08 10° N 04:04:52 58° WNW 04:09:36 10° SSW
Cosmos 1076 Rocket 4.4 04:02:51 10° N 04:07:08 53° ENE 04:11:24 10° SSE
Cosmos 2251 Rocket 4.5 04:02:50 10° NNW 04:08:07 55° ENE 04:13:23 10° SE
NOSS 2-2 (C) 3.6 04:05:43 14° WSW 04:08:33 48° NW 04:12:23 10° NNE
Cosmos 1812 Rocket 4.3 04:04:31 10° S 04:08:44 54° E 04:12:59 10° NNE
Lacrosse 5 rocket 2.9 04:05:14 10° SSW 04:09:20 35° SE 04:13:32 10° ENE
Cosmos 1833 Rocket 4.2 04:04:30 10° NNW 04:09:53 42° ENE 04:15:13 10° SE
NOSS 3-2 (A) 4.4 04:04:00 10° NW 04:11:34 76° NE 04:20:03 10° SE
ARIANE 5 R/B 3.9 04:08:23 10° NNW 04:12:27 23° WNW 04:16:31 10° WSW
USA 281 3.7 04:06:30 10° NNE 04:13:02 63° ESE 04:19:31 10° SSW
SeaSat 1 2.7 04:10:56 10° NNE 04:15:53 70° ESE 04:20:48 10° SSW
Meteor 2-10 Rocket 4.0 04:14:46 10° S 04:19:58 70° E 04:25:26 10° NNE
SAR-Lupe-1 4.3 04:16:52 10° SSE 04:20:26 76° ENE 04:24:01 10° N
H-2A R/B 2.9 04:19:31 10° SSW 04:23:01 27° W 04:26:31 10° NW
Cosmos 2058 Rocket 4.0 04:19:14 10° SW 04:23:12 30° WNW 04:27:08 10° NNW
Cosmos 1867 3.6 04:19:04 10° NW 04:24:34 84° WSW 04:30:00 10° SSE
Cosmos 2058 2.9 04:26:44 10° NNW 04:30:55 67° W 04:35:03 10° S
Cosmos 2184 Rocket 4.4 04:26:11 10° N 04:32:29 73° E 04:38:40 10° SSE
CZ-2C R/B 2.4 04:27:59 10° N 04:32:31 58° WNW 04:37:08 10° SSW
DEBRIS 2.9 04:31:01 10° W 04:32:59 32° NNW 04:35:16 10° NE
Cosmos 2074 Rocket 4.3 04:26:41 10° N 04:33:00 76° E 04:39:17 10° SSE
Cosmos 1408 2.6 04:29:33 10° N 04:33:16 85° W 04:36:58 10° S
